Voltar ao catálogo

KUIPER-00155

AtivoComunicaçõesLEO
NORAD 65774·PAYLOAD·🇺🇸 United States

Lançado Sep 25, 2025 de Cape Canaveral Space Force Station

Loading…

Próximas Passagens (próximas 24 horas)

TLE

AtualizadoSource: CelesTrak SupGP

Época: Sep 14, 2026, 22:50 UTC

1 65774C 25217N   26257.95185185  .00001855  00000+0  24282-3 0  2576
2 65774  51.9010 241.2364 0000681  76.7126 291.0171 14.79923529    16

Acompanhe KUIPER-00155 em tempo real com AllMySat

Download on the App Store